owner,sensor,date,latitude,longitude,air_pressure(mBar),qcFlag 
COMPS,ioos:station:USF.COMPS:NFB:1,2008-11-10T14:00:00Z,25.0840,-81.0960,1016.84,1111122 
COMPS,ioos:station:USF.COMPS:NFB:1,2008-11-10T14:06:00Z,25.0840,-81.0960,1016.8,1111122 
COMPS,ioos:station:USF.COMPS:NFB:1,2008-11-10T14:12:00Z,25.0840,-81.0960,1016.69,1111122 
COMPS,ioos:station:USF.COMPS:NFB:1,2008-11-10T14:18:00Z,25.0840,-81.0960,1016.72,1111122 
COMPS,ioos:station:USF.COMPS:NFB:1,2008-11-10T14:24:00Z,25.0840,-81.0960,1016.64,1111122 
COMPS,ioos:station:USF.COMPS:NFB:1,2008-11-10T14:30:00Z,25.0840,-81.0960,1016.73,1111122 
COMPS,ioos:station:USF.COMPS:NFB:1,2008-11-10T14:36:00Z,25.0840,-81.0960,1016.7,1111122 
COMPS,ioos:station:USF.COMPS:NFB:1,2008-11-10T14:42:00Z,25.0840,-81.0960,1016.65,1111122 
COMPS,ioos:station:USF.COMPS:NFB:1,2008-11-10T14:48:00Z,25.0840,-81.0960,1016.72,1111122 
COMPS,ioos:station:USF.COMPS:NFB:1,2008-11-10T14:54:00Z,25.0840,-81.0960,1016.74,1111122 
COMPS,ioos:station:USF.COMPS:NFB:1,2008-11-10T15:00:00Z,25.0840,-81.0960,1016.74,1111122 
COMPS,ioos:station:USF.COMPS:NFB:1,2008-11-10T15:06:00Z,25.0840,-81.0960,1016.72,1111122 
COMPS,ioos:station:USF.COMPS:NFB:1,2008-11-10T15:12:00Z,25.0840,-81.0960,1016.72,1111122 
COMPS,ioos:station:USF.COMPS:NFB:1,2008-11-10T15:18:00Z,25.0840,-81.0960,1016.68,1111122 
COMPS,ioos:station:USF.COMPS:NFB:1,2008-11-10T15:24:00Z,25.0840,-81.0960,1016.69,1111122 
COMPS,ioos:station:USF.COMPS:NFB:1,2008-11-10T15:30:00Z,25.0840,-81.0960,1016.7,1111122 
COMPS,ioos:station:USF.COMPS:NFB:1,2008-11-10T15:36:00Z,25.0840,-81.0960,1016.61,1111122 
COMPS,ioos:station:USF.COMPS:NFB:1,2008-11-10T15:42:00Z,25.0840,-81.0960,1016.5,1111122 
COMPS,ioos:station:USF.COMPS:NFB:1,2008-11-10T15:48:00Z,25.0840,-81.0960,1016.42,1111122 
COMPS,ioos:station:USF.COMPS:NFB:1,2008-11-10T15:54:00Z,25.0840,-81.0960,1016.42,1111122 
COMPS,ioos:station:USF.COMPS:NFB:1,2008-11-10T16:00:00Z,25.0840,-81.0960,1016.24,1111122 
COMPS,ioos:station:USF.COMPS:NFB:1,2008-11-10T16:06:00Z,25.0840,-81.0960,1016.24,1111122 
COMPS,ioos:station:USF.COMPS:NFB:1,2008-11-10T16:12:00Z,25.0840,-81.0960,1016.24,1111122 
COMPS,ioos:station:USF.COMPS:NFB:1,2008-11-10T16:18:00Z,25.0840,-81.0960,1016.1,1111122 
COMPS,ioos:station:USF.COMPS:NFB:1,2008-11-10T16:24:00Z,25.0840,-81.0960,1015.94,1111122 
COMPS,ioos:station:USF.COMPS:NFB:1,2008-11-10T16:30:00Z,25.0840,-81.0960,1015.78,1111122 
COMPS,ioos:station:USF.COMPS:NFB:1,2008-11-10T16:36:00Z,25.0840,-81.0960,1015.74,1111122 
COMPS,ioos:station:USF.COMPS:NFB:1,2008-11-10T16:42:00Z,25.0840,-81.0960,1015.65,1111122 
COMPS,ioos:station:USF.COMPS:NFB:1,2008-11-10T16:48:00Z,25.0840,-81.0960,1015.58,1111122 
COMPS,ioos:station:USF.COMPS:NFB:1,2008-11-10T16:54:00Z,25.0840,-81.0960,1015.58,1111122 
COMPS,ioos:station:USF.COMPS:NFB:1,2008-11-10T17:00:00Z,25.0840,-81.0960,1015.37,1111122 
COMPS,ioos:station:USF.COMPS:NFB:1,2008-11-10T17:06:00Z,25.0840,-81.0960,1015.33,1111122 
COMPS,ioos:station:USF.COMPS:NFB:1,2008-11-10T17:12:00Z,25.0840,-81.0960,1015.26,1111122 
COMPS,ioos:station:USF.COMPS:NFB:1,2008-11-10T17:18:00Z,25.0840,-81.0960,1015.14,1111122 
COMPS,ioos:station:USF.COMPS:NFB:1,2008-11-10T17:24:00Z,25.0840,-81.0960,1015.08,1111122 
COMPS,ioos:station:USF.COMPS:NFB:1,2008-11-10T17:30:00Z,25.0840,-81.0960,1014.97,1111122 
COMPS,ioos:station:USF.COMPS:NFB:1,2008-11-10T17:36:00Z,25.0840,-81.0960,1014.82,1111122 
COMPS,ioos:station:USF.COMPS:NFB:1,2008-11-10T17:42:00Z,25.0840,-81.0960,1014.72,1111122 
COMPS,ioos:station:USF.COMPS:NFB:1,2008-11-10T17:48:00Z,25.0840,-81.0960,1014.53,1111122 
COMPS,ioos:station:USF.COMPS:NFB:1,2008-11-10T17:54:00Z,25.0840,-81.0960,1014.38,1111122 
COMPS,ioos:station:USF.COMPS:NFB:1,2008-11-10T18:00:00Z,25.0840,-81.0960,1014.28,1111122 
COMPS,ioos:station:USF.COMPS:NFB:1,2008-11-10T18:06:00Z,25.0840,-81.0960,1014.22,1111122 
COMPS,ioos:station:USF.COMPS:NFB:1,2008-11-10T18:12:00Z,25.0840,-81.0960,1014.17,1111122 
COMPS,ioos:station:USF.COMPS:NFB:1,2008-11-10T18:18:00Z,25.0840,-81.0960,1014.08,1111122 
COMPS,ioos:station:USF.COMPS:NFB:1,2008-11-10T18:24:00Z,25.0840,-81.0960,1014.02,1111122 
COMPS,ioos:station:USF.COMPS:NFB:1,2008-11-10T18:30:00Z,25.0840,-81.0960,1013.88,1111122 
COMPS,ioos:station:USF.COMPS:NFB:1,2008-11-10T18:36:00Z,25.0840,-81.0960,1013.85,1111122 
COMPS,ioos:station:USF.COMPS:NFB:1,2008-11-10T18:42:00Z,25.0840,-81.0960,1013.78,1111122 
COMPS,ioos:station:USF.COMPS:NFB:1,2008-11-10T18:48:00Z,25.0840,-81.0960,1013.73,1111122 
COMPS,ioos:station:USF.COMPS:NFB:1,2008-11-10T18:54:00Z,25.0840,-81.0960,1013.69,1111122 
COMPS,ioos:station:USF.COMPS:NFB:1,2008-11-10T19:00:00Z,25.0840,-81.0960,1013.66,1111122 
COMPS,ioos:station:USF.COMPS:NFB:1,2008-11-10T19:06:00Z,25.0840,-81.0960,1013.62,1111122 
COMPS,ioos:station:USF.COMPS:NFB:1,2008-11-10T19:12:00Z,25.0840,-81.0960,1013.54,1111122 
COMPS,ioos:station:USF.COMPS:NFB:1,2008-11-10T19:18:00Z,25.0840,-81.0960,1013.46,1111122 
COMPS,ioos:station:USF.COMPS:NFB:1,2008-11-10T19:24:00Z,25.0840,-81.0960,1013.44,1111122 
COMPS,ioos:station:USF.COMPS:NFB:1,2008-11-10T19:30:00Z,25.0840,-81.0960,1013.42,1111122 
COMPS,ioos:station:USF.COMPS:NFB:1,2008-11-10T19:36:00Z,25.0840,-81.0960,1013.44,1111122 
COMPS,ioos:station:USF.COMPS:NFB:1,2008-11-10T19:42:00Z,25.0840,-81.0960,1013.52,1111122 
COMPS,ioos:station:USF.COMPS:NFB:1,2008-11-10T19:48:00Z,25.0840,-81.0960,1013.46,1111122 
COMPS,ioos:station:USF.COMPS:NFB:1,2008-11-10T19:54:00Z,25.0840,-81.0960,1013.46,1111122 
COMPS,ioos:station:USF.COMPS:NFB:1,2008-11-10T20:00:00Z,25.0840,-81.0960,1013.56,1111122 
COMPS,ioos:station:USF.COMPS:NFB:1,2008-11-10T20:06:00Z,25.0840,-81.0960,1013.5,1111122 
COMPS,ioos:station:USF.COMPS:NFB:1,2008-11-10T20:12:00Z,25.0840,-81.0960,1013.54,1111122 
COMPS,ioos:station:USF.COMPS:NFB:1,2008-11-10T20:18:00Z,25.0840,-81.0960,1013.48,1111122 
COMPS,ioos:station:USF.COMPS:NFB:1,2008-11-10T20:24:00Z,25.0840,-81.0960,1013.54,1111122 
COMPS,ioos:station:USF.COMPS:NFB:1,2008-11-10T20:30:00Z,25.0840,-81.0960,1013.42,1111122 
COMPS,ioos:station:USF.COMPS:NFB:1,2008-11-10T20:36:00Z,25.0840,-81.0960,1013.42,1111122 
COMPS,ioos:station:USF.COMPS:NFB:1,2008-11-10T20:42:00Z,25.0840,-81.0960,1013.44,1111122 
COMPS,ioos:station:USF.COMPS:NFB:1,2008-11-10T20:48:00Z,25.0840,-81.0960,1013.36,1111122 
COMPS,ioos:station:USF.COMPS:NFB:1,2008-11-10T20:54:00Z,25.0840,-81.0960,1013.4,1111122 
COMPS,ioos:station:USF.COMPS:NFB:1,2008-11-10T21:00:00Z,25.0840,-81.0960,1013.41,1111122 
COMPS,ioos:station:USF.COMPS:NFB:1,2008-11-10T21:06:00Z,25.0840,-81.0960,1013.42,1111122 
COMPS,ioos:station:USF.COMPS:NFB:1,2008-11-10T21:12:00Z,25.0840,-81.0960,1013.36,1111122 
COMPS,ioos:station:USF.COMPS:NFB:1,2008-11-10T21:18:00Z,25.0840,-81.0960,1013.42,1111122 
COMPS,ioos:station:USF.COMPS:NFB:1,2008-11-10T21:24:00Z,25.0840,-81.0960,1013.52,1111122 
COMPS,ioos:station:USF.COMPS:NFB:1,2008-11-10T21:30:00Z,25.0840,-81.0960,1013.5,1111122 
COMPS,ioos:station:USF.COMPS:NFB:1,2008-11-10T21:36:00Z,25.0840,-81.0960,1013.42,1111122 
COMPS,ioos:station:USF.COMPS:NFB:1,2008-11-10T21:42:00Z,25.0840,-81.0960,1013.46,1111122 
COMPS,ioos:station:USF.COMPS:NFB:1,2008-11-10T21:48:00Z,25.0840,-81.0960,1013.6,1111122 
COMPS,ioos:station:USF.COMPS:NFB:1,2008-11-10T21:54:00Z,25.0840,-81.0960,1013.61,1111122 
COMPS,ioos:station:USF.COMPS:NFB:1,2008-11-10T22:00:00Z,25.0840,-81.0960,1013.62,1111122 
COMPS,ioos:station:USF.COMPS:NFB:1,2008-11-10T22:06:00Z,25.0840,-81.0960,1013.64,1111122 
COMPS,ioos:station:USF.COMPS:NFB:1,2008-11-10T22:12:00Z,25.0840,-81.0960,1013.69,1111122 
COMPS,ioos:station:USF.COMPS:NFB:1,2008-11-10T22:18:00Z,25.0840,-81.0960,1013.66,1111122 
COMPS,ioos:station:USF.COMPS:NFB:1,2008-11-10T22:24:00Z,25.0840,-81.0960,1013.73,1111122 
COMPS,ioos:station:USF.COMPS:NFB:1,2008-11-10T22:30:00Z,25.0840,-81.0960,1013.82,1111122 
COMPS,ioos:station:USF.COMPS:NFB:1,2008-11-10T22:36:00Z,25.0840,-81.0960,1013.86,1111122 
COMPS,ioos:station:USF.COMPS:NFB:1,2008-11-10T22:42:00Z,25.0840,-81.0960,1013.81,1111122 
COMPS,ioos:station:USF.COMPS:NFB:1,2008-11-10T22:48:00Z,25.0840,-81.0960,1013.86,1111122 
COMPS,ioos:station:USF.COMPS:NFB:1,2008-11-10T22:54:00Z,25.0840,-81.0960,1013.94,1111122 
COMPS,ioos:station:USF.COMPS:NFB:1,2008-11-10T23:00:00Z,25.0840,-81.0960,1013.94,1111122 
COMPS,ioos:station:USF.COMPS:NFB:1,2008-11-10T23:06:00Z,25.0840,-81.0960,1013.96,1111122 
COMPS,ioos:station:USF.COMPS:NFB:1,2008-11-10T23:12:00Z,25.0840,-81.0960,1013.98,1111122 
COMPS,ioos:station:USF.COMPS:NFB:1,2008-11-10T23:18:00Z,25.0840,-81.0960,1014.02,1111122 
COMPS,ioos:station:USF.COMPS:NFB:1,2008-11-10T23:24:00Z,25.0840,-81.0960,1014.09,1111122 
COMPS,ioos:station:USF.COMPS:NFB:1,2008-11-10T23:30:00Z,25.0840,-81.0960,1014.12,1111122 
COMPS,ioos:station:USF.COMPS:NFB:1,2008-11-10T23:36:00Z,25.0840,-81.0960,1014.24,1111122 
COMPS,ioos:station:USF.COMPS:NFB:1,2008-11-10T23:42:00Z,25.0840,-81.0960,1014.25,1111122 
COMPS,ioos:station:USF.COMPS:NFB:1,2008-11-10T23:48:00Z,25.0840,-81.0960,1014.36,1111122 
COMPS,ioos:station:USF.COMPS:NFB:1,2008-11-10T23:54:00Z,25.0840,-81.0960,1014.45,1111122 
COMPS,ioos:station:USF.COMPS:NFB:1,2008-11-11T00:00:00Z,25.0840,-81.0960,1014.53,1111122 
COMPS,ioos:station:USF.COMPS:NFB:1,2008-11-11T00:06:00Z,25.0840,-81.0960,1014.54,1111122 
COMPS,ioos:station:USF.COMPS:NFB:1,2008-11-11T00:12:00Z,25.0840,-81.0960,1014.62,1111122 
COMPS,ioos:station:USF.COMPS:NFB:1,2008-11-11T00:18:00Z,25.0840,-81.0960,1014.66,1111122 
COMPS,ioos:station:USF.COMPS:NFB:1,2008-11-11T00:24:00Z,25.0840,-81.0960,1014.9,1111122 
COMPS,ioos:station:USF.COMPS:NFB:1,2008-11-11T00:30:00Z,25.0840,-81.0960,1015.0,1111122 
COMPS,ioos:station:USF.COMPS:NFB:1,2008-11-11T00:36:00Z,25.0840,-81.0960,1015.01,1111122 
COMPS,ioos:station:USF.COMPS:NFB:1,2008-11-11T00:42:00Z,25.0840,-81.0960,1015.08,1111122 
COMPS,ioos:station:USF.COMPS:NFB:1,2008-11-11T00:48:00Z,25.0840,-81.0960,1015.05,1111122 
COMPS,ioos:station:USF.COMPS:NFB:1,2008-11-11T00:54:00Z,25.0840,-81.0960,1015.12,1111122 
COMPS,ioos:station:USF.COMPS:NFB:1,2008-11-11T01:00:00Z,25.0840,-81.0960,1015.17,1111122 
COMPS,ioos:station:USF.COMPS:NFB:1,2008-11-11T01:06:00Z,25.0840,-81.0960,1015.18,1111122 
COMPS,ioos:station:USF.COMPS:NFB:1,2008-11-11T01:12:00Z,25.0840,-81.0960,1015.24,1111122 
COMPS,ioos:station:USF.COMPS:NFB:1,2008-11-11T01:18:00Z,25.0840,-81.0960,1015.26,1111122 
COMPS,ioos:station:USF.COMPS:NFB:1,2008-11-11T01:24:00Z,25.0840,-81.0960,1015.37,1111122 
COMPS,ioos:station:USF.COMPS:NFB:1,2008-11-11T01:30:00Z,25.0840,-81.0960,1015.37,1111122 
COMPS,ioos:station:USF.COMPS:NFB:1,2008-11-11T01:36:00Z,25.0840,-81.0960,1015.44,1111122 
COMPS,ioos:station:USF.COMPS:NFB:1,2008-11-11T01:42:00Z,25.0840,-81.0960,1015.46,1111122 
COMPS,ioos:station:USF.COMPS:NFB:1,2008-11-11T01:48:00Z,25.0840,-81.0960,1015.54,1111122 
COMPS,ioos:station:USF.COMPS:NFB:1,2008-11-11T01:54:00Z,25.0840,-81.0960,1015.6,1111122 
COMPS,ioos:station:USF.COMPS:NFB:1,2008-11-11T02:00:00Z,25.0840,-81.0960,1015.73,1111122 
COMPS,ioos:station:USF.COMPS:NFB:1,2008-11-11T02:06:00Z,25.0840,-81.0960,1015.72,1111122 
COMPS,ioos:station:USF.COMPS:NFB:1,2008-11-11T02:12:00Z,25.0840,-81.0960,1015.78,1111122 
COMPS,ioos:station:USF.COMPS:NFB:1,2008-11-11T02:18:00Z,25.0840,-81.0960,1015.8,1111122 
COMPS,ioos:station:USF.COMPS:NFB:1,2008-11-11T02:24:00Z,25.0840,-81.0960,1015.86,1111122 
COMPS,ioos:station:USF.COMPS:NFB:1,2008-11-11T02:30:00Z,25.0840,-81.0960,1015.92,1111122 
COMPS,ioos:station:USF.COMPS:NFB:1,2008-11-11T02:36:00Z,25.0840,-81.0960,1015.93,1111122 
COMPS,ioos:station:USF.COMPS:NFB:1,2008-11-11T02:42:00Z,25.0840,-81.0960,1016.0,1111122 
COMPS,ioos:station:USF.COMPS:NFB:1,2008-11-11T02:48:00Z,25.0840,-81.0960,1015.94,1111122 
COMPS,ioos:station:USF.COMPS:NFB:1,2008-11-11T02:54:00Z,25.0840,-81.0960,1015.9,1111122 
COMPS,ioos:station:USF.COMPS:NFB:1,2008-11-11T03:00:00Z,25.0840,-81.0960,1015.88,1111122 
COMPS,ioos:station:USF.COMPS:NFB:1,2008-11-11T03:06:00Z,25.0840,-81.0960,1015.97,1111122 
COMPS,ioos:station:USF.COMPS:NFB:1,2008-11-11T03:12:00Z,25.0840,-81.0960,1015.98,1111122 
COMPS,ioos:station:USF.COMPS:NFB:1,2008-11-11T03:18:00Z,25.0840,-81.0960,1015.98,1111122 
COMPS,ioos:station:USF.COMPS:NFB:1,2008-11-11T03:24:00Z,25.0840,-81.0960,1015.97,1111122 
COMPS,ioos:station:USF.COMPS:NFB:1,2008-11-11T03:30:00Z,25.0840,-81.0960,1015.97,1111122 
COMPS,ioos:station:USF.COMPS:NFB:1,2008-11-11T03:36:00Z,25.0840,-81.0960,1015.97,1111122 
COMPS,ioos:station:USF.COMPS:NFB:1,2008-11-11T03:42:00Z,25.0840,-81.0960,1016.01,1111122 
COMPS,ioos:station:USF.COMPS:NFB:1,2008-11-11T03:48:00Z,25.0840,-81.0960,1015.97,1111122 
COMPS,ioos:station:USF.COMPS:NFB:1,2008-11-11T03:54:00Z,25.0840,-81.0960,1015.98,1111122 
COMPS,ioos:station:USF.COMPS:NFB:1,2008-11-11T04:00:00Z,25.0840,-81.0960,1016.02,1111122 
COMPS,ioos:station:USF.COMPS:NFB:1,2008-11-11T04:06:00Z,25.0840,-81.0960,1015.97,1111122 
COMPS,ioos:station:USF.COMPS:NFB:1,2008-11-11T04:12:00Z,25.0840,-81.0960,1015.97,1111122 
COMPS,ioos:station:USF.COMPS:NFB:1,2008-11-11T04:18:00Z,25.0840,-81.0960,1015.9,1111122 
COMPS,ioos:station:USF.COMPS:NFB:1,2008-11-11T04:24:00Z,25.0840,-81.0960,1015.86,1111122 
COMPS,ioos:station:USF.COMPS:NFB:1,2008-11-11T04:30:00Z,25.0840,-81.0960,1015.82,1111122 
COMPS,ioos:station:USF.COMPS:NFB:1,2008-11-11T04:36:00Z,25.0840,-81.0960,1015.81,1111122 
COMPS,ioos:station:USF.COMPS:NFB:1,2008-11-11T04:42:00Z,25.0840,-81.0960,1015.74,1111122 
COMPS,ioos:station:USF.COMPS:NFB:1,2008-11-11T04:48:00Z,25.0840,-81.0960,1015.68,1111122 
COMPS,ioos:station:USF.COMPS:NFB:1,2008-11-11T04:54:00Z,25.0840,-81.0960,1015.66,1111122 
COMPS,ioos:station:USF.COMPS:NFB:1,2008-11-11T05:00:00Z,25.0840,-81.0960,1015.56,1111122 
COMPS,ioos:station:USF.COMPS:NFB:1,2008-11-11T05:06:00Z,25.0840,-81.0960,1015.54,1111122 
COMPS,ioos:station:USF.COMPS:NFB:1,2008-11-11T05:12:00Z,25.0840,-81.0960,1015.52,1111122 
COMPS,ioos:station:USF.COMPS:NFB:1,2008-11-11T05:18:00Z,25.0840,-81.0960,1015.42,1111122 
COMPS,ioos:station:USF.COMPS:NFB:1,2008-11-11T05:24:00Z,25.0840,-81.0960,1015.37,1111122 
COMPS,ioos:station:USF.COMPS:NFB:1,2008-11-11T05:30:00Z,25.0840,-81.0960,1015.25,1111122 
COMPS,ioos:station:USF.COMPS:NFB:1,2008-11-11T05:36:00Z,25.0840,-81.0960,1015.21,1111122 
COMPS,ioos:station:USF.COMPS:NFB:1,2008-11-11T05:42:00Z,25.0840,-81.0960,1015.14,1111122 
COMPS,ioos:station:USF.COMPS:NFB:1,2008-11-11T05:48:00Z,25.0840,-81.0960,1015.17,1111122 
COMPS,ioos:station:USF.COMPS:NFB:1,2008-11-11T05:54:00Z,25.0840,-81.0960,1015.09,1111122 
COMPS,ioos:station:USF.COMPS:NFB:1,2008-11-11T06:00:00Z,25.0840,-81.0960,1015.0,1111122 
COMPS,ioos:station:USF.COMPS:NFB:1,2008-11-11T06:06:00Z,25.0840,-81.0960,1015.02,1111122 
COMPS,ioos:station:USF.COMPS:NFB:1,2008-11-11T06:12:00Z,25.0840,-81.0960,1014.93,1111122 
COMPS,ioos:station:USF.COMPS:NFB:1,2008-11-11T06:18:00Z,25.0840,-81.0960,1014.98,1111122 
COMPS,ioos:station:USF.COMPS:NFB:1,2008-11-11T06:24:00Z,25.0840,-81.0960,1014.93,1111122 
COMPS,ioos:station:USF.COMPS:NFB:1,2008-11-11T06:30:00Z,25.0840,-81.0960,1014.92,1111122 
COMPS,ioos:station:USF.COMPS:NFB:1,2008-11-11T06:36:00Z,25.0840,-81.0960,1014.92,1111122 
COMPS,ioos:station:USF.COMPS:NFB:1,2008-11-11T06:42:00Z,25.0840,-81.0960,1014.93,1111122 
COMPS,ioos:station:USF.COMPS:NFB:1,2008-11-11T06:48:00Z,25.0840,-81.0960,1014.86,1111122 
COMPS,ioos:station:USF.COMPS:NFB:1,2008-11-11T06:54:00Z,25.0840,-81.0960,1014.84,1111122 
COMPS,ioos:station:USF.COMPS:NFB:1,2008-11-11T07:00:00Z,25.0840,-81.0960,1014.84,1111122 
COMPS,ioos:station:USF.COMPS:NFB:1,2008-11-11T07:06:00Z,25.0840,-81.0960,1014.86,1111122 
COMPS,ioos:station:USF.COMPS:NFB:1,2008-11-11T07:12:00Z,25.0840,-81.0960,1014.88,1111122 
COMPS,ioos:station:USF.COMPS:NFB:1,2008-11-11T07:18:00Z,25.0840,-81.0960,1014.77,1111122 
COMPS,ioos:station:USF.COMPS:NFB:1,2008-11-11T07:24:00Z,25.0840,-81.0960,1014.68,1111122 
COMPS,ioos:station:USF.COMPS:NFB:1,2008-11-11T07:30:00Z,25.0840,-81.0960,1014.6,1111122 
COMPS,ioos:station:USF.COMPS:NFB:1,2008-11-11T07:36:00Z,25.0840,-81.0960,1014.52,1111122 
COMPS,ioos:station:USF.COMPS:NFB:1,2008-11-11T07:42:00Z,25.0840,-81.0960,1001.61,1111122 
COMPS,ioos:station:USF.COMPS:NFB:1,2008-11-11T07:48:00Z,25.0840,-81.0960,1014.45,1111122 
COMPS,ioos:station:USF.COMPS:NFB:1,2008-11-11T07:54:00Z,25.0840,-81.0960,1014.36,1111122 
COMPS,ioos:station:USF.COMPS:NFB:1,2008-11-11T08:00:00Z,25.0840,-81.0960,1014.37,1111122 
COMPS,ioos:station:USF.COMPS:NFB:1,2008-11-11T08:06:00Z,25.0840,-81.0960,1014.42,1111122 
COMPS,ioos:station:USF.COMPS:NFB:1,2008-11-11T08:12:00Z,25.0840,-81.0960,1014.44,1111122 
COMPS,ioos:station:USF.COMPS:NFB:1,2008-11-11T08:18:00Z,25.0840,-81.0960,1014.45,1111122 
COMPS,ioos:station:USF.COMPS:NFB:1,2008-11-11T08:24:00Z,25.0840,-81.0960,1014.45,1111122 
COMPS,ioos:station:USF.COMPS:NFB:1,2008-11-11T08:30:00Z,25.0840,-81.0960,1014.5,1111122 
COMPS,ioos:station:USF.COMPS:NFB:1,2008-11-11T08:36:00Z,25.0840,-81.0960,1014.56,1111122 
COMPS,ioos:station:USF.COMPS:NFB:1,2008-11-11T08:42:00Z,25.0840,-81.0960,1014.54,1111122 
COMPS,ioos:station:USF.COMPS:NFB:1,2008-11-11T08:48:00Z,25.0840,-81.0960,1014.52,1111122 
COMPS,ioos:station:USF.COMPS:NFB:1,2008-11-11T08:54:00Z,25.0840,-81.0960,1014.42,1111122 
COMPS,ioos:station:USF.COMPS:NFB:1,2008-11-11T09:00:00Z,25.0840,-81.0960,1014.42,1111122 
COMPS,ioos:station:USF.COMPS:NFB:1,2008-11-11T09:06:00Z,25.0840,-81.0960,1014.44,1111122 
COMPS,ioos:station:USF.COMPS:NFB:1,2008-11-11T09:12:00Z,25.0840,-81.0960,1014.45,1111122 
COMPS,ioos:station:USF.COMPS:NFB:1,2008-11-11T09:18:00Z,25.0840,-81.0960,1014.53,1111122 
COMPS,ioos:station:USF.COMPS:NFB:1,2008-11-11T09:24:00Z,25.0840,-81.0960,1014.6,1111122 
COMPS,ioos:station:USF.COMPS:NFB:1,2008-11-11T09:30:00Z,25.0840,-81.0960,1014.61,1111122 
COMPS,ioos:station:USF.COMPS:NFB:1,2008-11-11T09:36:00Z,25.0840,-81.0960,1014.54,1111122 
COMPS,ioos:station:USF.COMPS:NFB:1,2008-11-11T09:42:00Z,25.0840,-81.0960,1014.58,1111122 
COMPS,ioos:station:USF.COMPS:NFB:1,2008-11-11T09:48:00Z,25.0840,-81.0960,1014.64,1111122 
COMPS,ioos:station:USF.COMPS:NFB:1,2008-11-11T09:54:00Z,25.0840,-81.0960,1014.7,1111122 
COMPS,ioos:station:USF.COMPS:NFB:1,2008-11-11T10:00:00Z,25.0840,-81.0960,1014.77,1111122 
COMPS,ioos:station:USF.COMPS:NFB:1,2008-11-11T10:06:00Z,25.0840,-81.0960,1014.8,1111122 
COMPS,ioos:station:USF.COMPS:NFB:1,2008-11-11T10:12:00Z,25.0840,-81.0960,1014.9,1111122 
COMPS,ioos:station:USF.COMPS:NFB:1,2008-11-11T10:18:00Z,25.0840,-81.0960,1014.93,1111122 
COMPS,ioos:station:USF.COMPS:NFB:1,2008-11-11T10:24:00Z,25.0840,-81.0960,1014.96,1111122 
COMPS,ioos:station:USF.COMPS:NFB:1,2008-11-11T10:30:00Z,25.0840,-81.0960,1014.94,1111122 
COMPS,ioos:station:USF.COMPS:NFB:1,2008-11-11T10:36:00Z,25.0840,-81.0960,1014.98,1111122 
COMPS,ioos:station:USF.COMPS:NFB:1,2008-11-11T10:42:00Z,25.0840,-81.0960,1015.06,1111122 
COMPS,ioos:station:USF.COMPS:NFB:1,2008-11-11T10:48:00Z,25.0840,-81.0960,1015.13,1111122 
COMPS,ioos:station:USF.COMPS:NFB:1,2008-11-11T10:54:00Z,25.0840,-81.0960,1015.25,1111122 
COMPS,ioos:station:USF.COMPS:NFB:1,2008-11-11T11:00:00Z,25.0840,-81.0960,1015.29,1111122 
COMPS,ioos:station:USF.COMPS:NFB:1,2008-11-11T11:06:00Z,25.0840,-81.0960,1015.37,1111122 
COMPS,ioos:station:USF.COMPS:NFB:1,2008-11-11T11:12:00Z,25.0840,-81.0960,1015.42,1111122 
COMPS,ioos:station:USF.COMPS:NFB:1,2008-11-11T11:18:00Z,25.0840,-81.0960,1015.45,1111122 
COMPS,ioos:station:USF.COMPS:NFB:1,2008-11-11T11:24:00Z,25.0840,-81.0960,1015.57,1111122 
COMPS,ioos:station:USF.COMPS:NFB:1,2008-11-11T11:30:00Z,25.0840,-81.0960,1015.61,1111122 
COMPS,ioos:station:USF.COMPS:NFB:1,2008-11-11T11:36:00Z,25.0840,-81.0960,1015.73,1111122 
COMPS,ioos:station:USF.COMPS:NFB:1,2008-11-11T11:42:00Z,25.0840,-81.0960,1015.86,1111122 
COMPS,ioos:station:USF.COMPS:NFB:1,2008-11-11T11:48:00Z,25.0840,-81.0960,1015.93,1111122 
COMPS,ioos:station:USF.COMPS:NFB:1,2008-11-11T11:54:00Z,25.0840,-81.0960,1016.05,1111122 
COMPS,ioos:station:USF.COMPS:NFB:1,2008-11-11T12:00:00Z,25.0840,-81.0960,1016.13,1111122 
COMPS,ioos:station:USF.COMPS:NFB:1,2008-11-11T12:06:00Z,25.0840,-81.0960,1016.14,1111122 
COMPS,ioos:station:USF.COMPS:NFB:1,2008-11-11T12:12:00Z,25.0840,-81.0960,1016.18,1111122 
COMPS,ioos:station:USF.COMPS:NFB:1,2008-11-11T12:18:00Z,25.0840,-81.0960,1016.26,1111122 
COMPS,ioos:station:USF.COMPS:NFB:1,2008-11-11T12:24:00Z,25.0840,-81.0960,1016.22,1111122 
COMPS,ioos:station:USF.COMPS:NFB:1,2008-11-11T12:30:00Z,25.0840,-81.0960,1016.26,1111122 
COMPS,ioos:station:USF.COMPS:NFB:1,2008-11-11T12:36:00Z,25.0840,-81.0960,1016.32,1111122 
COMPS,ioos:station:USF.COMPS:NFB:1,2008-11-11T12:42:00Z,25.0840,-81.0960,1016.32,1111122 
COMPS,ioos:station:USF.COMPS:NFB:1,2008-11-11T12:48:00Z,25.0840,-81.0960,1016.37,1111122 
COMPS,ioos:station:USF.COMPS:NFB:1,2008-11-11T12:54:00Z,25.0840,-81.0960,1016.44,1111122 
COMPS,ioos:station:USF.COMPS:NFB:1,2008-11-11T13:00:00Z,25.0840,-81.0960,1016.44,1111122 
COMPS,ioos:station:USF.COMPS:NFB:1,2008-11-11T13:06:00Z,25.0840,-81.0960,1016.53,1111122 
COMPS,ioos:station:USF.COMPS:NFB:1,2008-11-11T13:12:00Z,25.0840,-81.0960,1016.6,1111122 
COMPS,ioos:station:USF.COMPS:NFB:1,2008-11-11T13:18:00Z,25.0840,-81.0960,1016.66,1111122 
COMPS,ioos:station:USF.COMPS:NFB:1,2008-11-11T13:24:00Z,25.0840,-81.0960,1016.72,1111122 
COMPS,ioos:station:USF.COMPS:NFB:1,2008-11-11T13:30:00Z,25.0840,-81.0960,1016.73,1111122 
COMPS,ioos:station:USF.COMPS:NFB:1,2008-11-11T13:36:00Z,25.0840,-81.0960,1016.73,1111122 
COMPS,ioos:station:USF.COMPS:NFB:1,2008-11-11T13:42:00Z,25.0840,-81.0960,1016.77,1111122 
COMPS,ioos:station:USF.COMPS:NFB:1,2008-11-11T13:48:00Z,25.0840,-81.0960,1016.8,1111122 
COMPS,ioos:station:USF.COMPS:NFB:1,2008-11-11T13:54:00Z,25.0840,-81.0960,1016.84,1111122 
COMPS,ioos:station:USF.COMPS:NFB:1,2008-11-11T14:00:00Z,25.0840,-81.0960,1016.82,1111122 
COMPS,ioos:station:USF.COMPS:NFB:1,2008-11-11T14:06:00Z,25.0840,-81.0960,1016.85,1111122 
COMPS,ioos:station:USF.COMPS:NFB:1,2008-11-11T14:12:00Z,25.0840,-81.0960,1016.9,1111122 
COMPS,ioos:station:USF.COMPS:NFB:1,2008-11-11T14:18:00Z,25.0840,-81.0960,1016.93,1111122 
COMPS,ioos:station:USF.COMPS:NFB:1,2008-11-11T14:24:00Z,25.0840,-81.0960,1017.01,1111122 
COMPS,ioos:station:USF.COMPS:NFB:1,2008-11-11T14:30:00Z,25.0840,-81.0960,1017.01,1111122 
COMPS,ioos:station:USF.COMPS:NFB:1,2008-11-11T14:36:00Z,25.0840,-81.0960,1016.98,1111122 
COMPS,ioos:station:USF.COMPS:NFB:1,2008-11-11T14:42:00Z,25.0840,-81.0960,1017.02,1111122 
COMPS,ioos:station:USF.COMPS:NFB:1,2008-11-11T14:48:00Z,25.0840,-81.0960,1017.0,1111122 
COMPS,ioos:station:USF.COMPS:NFB:1,2008-11-11T14:54:00Z,25.0840,-81.0960,1017.02,1111122 
COMPS,ioos:station:USF.COMPS:NFB:1,2008-11-11T15:00:00Z,25.0840,-81.0960,1016.97,1111122 
COMPS,ioos:station:USF.COMPS:NFB:1,2008-11-11T15:06:00Z,25.0840,-81.0960,1016.93,1111122 
COMPS,ioos:station:USF.COMPS:NFB:1,2008-11-11T15:12:00Z,25.0840,-81.0960,1016.85,1111122 
COMPS,ioos:station:USF.COMPS:NFB:1,2008-11-11T15:18:00Z,25.0840,-81.0960,1016.85,1111122 
COMPS,ioos:station:USF.COMPS:NFB:1,2008-11-11T15:24:00Z,25.0840,-81.0960,1016.78,1111122 
COMPS,ioos:station:USF.COMPS:NFB:1,2008-11-11T15:30:00Z,25.0840,-81.0960,1016.77,1111122 
COMPS,ioos:station:USF.COMPS:NFB:1,2008-11-11T15:36:00Z,25.0840,-81.0960,1016.72,1111122 
COMPS,ioos:station:USF.COMPS:NFB:1,2008-11-11T15:42:00Z,25.0840,-81.0960,1016.66,1111122 
COMPS,ioos:station:USF.COMPS:NFB:1,2008-11-11T15:48:00Z,25.0840,-81.0960,1016.64,1111122 
COMPS,ioos:station:USF.COMPS:NFB:1,2008-11-11T15:54:00Z,25.0840,-81.0960,1016.58,1111122 
COMPS,ioos:station:USF.COMPS:NFB:1,2008-11-11T16:00:00Z,25.0840,-81.0960,1016.45,1111122 
COMPS,ioos:station:USF.COMPS:NFB:1,2008-11-11T16:06:00Z,25.0840,-81.0960,1016.34,1111122 
COMPS,ioos:station:USF.COMPS:NFB:1,2008-11-11T16:12:00Z,25.0840,-81.0960,1016.37,1111122 
COMPS,ioos:station:USF.COMPS:NFB:1,2008-11-11T16:18:00Z,25.0840,-81.0960,1016.21,1111122 
COMPS,ioos:station:USF.COMPS:NFB:1,2008-11-11T16:24:00Z,25.0840,-81.0960,1016.12,1111122 
COMPS,ioos:station:USF.COMPS:NFB:1,2008-11-11T16:30:00Z,25.0840,-81.0960,1016.04,1111122 